Weather History for Alpine, TX

Change the Weather History Date:

Monday, December 2, 2013

  Actual Average (KMRF) Record (KMRF)
Temperature  
Mean Temperature 63 °F -  
Max Temperature 73 °F 57 °F 75 °F (2005)
Min Temperature 53 °F 29 °F 15 °F (2006)
Degree Days  
Heating Degree Days 2    
Growing Degree Days 13 (Base 50)    
Moisture  
Dew Point 24 °F    
Average Humidity 26    
Maximum Humidity 43    
Minimum Humidity 10    
Precipitation  
Precipitation 0.00 in - - ()
Sea Level Pressure  
Sea Level Pressure 30.05 in    
Wind  
Wind Speed 15 mph (WSW)    
Max Wind Speed 26 mph    
Max Gust Speed 34 mph    
Visibility 10 miles    
Events      
Averages and records for this station are not official NWS values.
T = Trace of Precipitation, MM = Missing Value Source: NWS Daily Summary

Daily Weather History Graph

Daily Weather History Graph

Search for Another Location

Airport:

Trip Planner

Search our weather history database for the weather conditions in past years. The results will help you decide how hot, cold, wet, or windy it might be!

Date:

Astronomy

Dec. 02, 2013 Rise Set
Actual Time 7:34 AM CST 5:53 PM CST
Civil Twilight 7:08 AM CST 6:19 PM CST
Nautical Twilight 6:38 AM CST 6:49 PM CST
Astronomical Twilight 6:09 AM CST 7:18 PM CST
Moon 7:05 AM CST (12/2) 5:56 PM CST (12/2)
Length of Visible Light 11h 11m
Length of Day
10h 18m
Waning Crescent, 0% of the Moon is Illuminated
Dec 2
Waning Crescent
Dec 2
New
Dec 9
First Quarter
Dec 17
Full
Dec 25
Last Quarter

Hourly Weather History & Observations

Time (CST) Temp. Dew Point Humidity Pressure Visibility Wind Dir Wind Speed Gust Speed Precip Events Conditions
12:15 AM 59.9 °F 35.1 °F 39% 30.17 in 10.0 mi WSW 15.0 mph - N/A   Clear
12:35 AM 60.1 °F 34.7 °F 39% 30.17 in 10.0 mi WSW 13.8 mph - N/A   Clear
12:55 AM 60.1 °F 34.3 °F 38% 30.15 in 10.0 mi SW 13.8 mph - N/A   Clear
1:15 AM 59.4 °F 35.1 °F 40% 30.16 in 10.0 mi WSW 12.7 mph - N/A   Clear
1:35 AM 59.4 °F 35.6 °F 41% 30.15 in 10.0 mi WSW 11.5 mph - N/A   Clear
1:55 AM 58.5 °F 36.0 °F 43% 30.14 in 10.0 mi WSW 13.8 mph - N/A   Clear
2:15 AM 58.6 °F 35.2 °F 42% 30.14 in 10.0 mi WSW 13.8 mph - N/A   Clear
2:35 AM 59.0 °F 34.5 °F 40% 30.14 in 10.0 mi WSW 12.7 mph - N/A   Clear
2:55 AM 58.3 °F 34.2 °F 40% 30.13 in 10.0 mi WSW 13.8 mph - N/A   Clear
3:15 AM 57.7 °F 34.5 °F 42% 30.12 in 10.0 mi WSW 18.4 mph - N/A   Clear
3:35 AM 58.3 °F 32.5 °F 38% 30.12 in 10.0 mi WSW 16.1 mph - N/A   Clear
3:55 AM 59.5 °F 29.7 °F 32% 30.11 in 10.0 mi WSW 17.3 mph - N/A   Clear
4:15 AM 59.4 °F 28.8 °F 31% 30.11 in 10.0 mi WSW 16.1 mph - N/A   Clear
4:35 AM 59.4 °F 28.9 °F 31% 30.11 in 10.0 mi WSW 18.4 mph 24.2 mph N/A   Clear
4:55 AM 58.6 °F 29.3 °F 33% 30.09 in 10.0 mi WSW 16.1 mph 23.0 mph N/A   Clear
5:15 AM 57.7 °F 29.8 °F 35% 30.10 in 10.0 mi WSW 17.3 mph - N/A   Clear
5:35 AM 57.6 °F 29.3 °F 34% 30.09 in 10.0 mi WSW 17.3 mph - N/A   Clear
5:55 AM 56.3 °F 30.0 °F 37% 30.08 in 10.0 mi WSW 17.3 mph 25.3 mph N/A   Clear
6:15 AM 56.1 °F 29.7 °F 36% 30.09 in 10.0 mi WSW 16.1 mph - N/A   Clear
6:35 AM 55.9 °F 29.7 °F 37% 30.09 in 10.0 mi SW 17.3 mph 20.7 mph N/A   Clear
6:55 AM 55.4 °F 29.8 °F 38% 30.10 in 10.0 mi WSW 13.8 mph - N/A   Clear
7:15 AM 55.6 °F 29.3 °F 37% 30.09 in 10.0 mi SW 12.7 mph - N/A   Clear
7:35 AM 54.7 °F 30.0 °F 39% 30.09 in 10.0 mi WSW 12.7 mph 18.4 mph N/A   Clear
7:55 AM 55.4 °F 29.3 °F 37% 30.08 in 10.0 mi WSW 15.0 mph 21.9 mph N/A   Clear
8:15 AM 56.3 °F 28.9 °F 35% 30.08 in 10.0 mi SW 13.8 mph 18.4 mph N/A   Clear
8:35 AM 57.2 °F 28.9 °F 34% 30.09 in 10.0 mi SW 13.8 mph - N/A   Clear
8:55 AM 58.8 °F 28.0 °F 31% 30.09 in 10.0 mi SW 9.2 mph - N/A   Clear
9:15 AM 61.7 °F 28.2 °F 28% 30.09 in 10.0 mi SW 10.4 mph - N/A   Clear
9:35 AM 64.6 °F 25.9 °F 23% 30.09 in 10.0 mi ESE 5.8 mph - N/A   Clear
9:55 AM 66.6 °F 25.0 °F 21% 30.10 in 10.0 mi WNW 13.8 mph 19.6 mph N/A   Clear
10:15 AM 68.0 °F 22.3 °F 18% 30.11 in 10.0 mi WNW 15.0 mph 21.9 mph N/A   Clear
10:35 AM 68.5 °F 19.4 °F 15% 30.11 in 10.0 mi West 13.8 mph 23.0 mph N/A   Clear
10:55 AM 69.4 °F 17.2 °F 14% 30.10 in 10.0 mi WNW 13.8 mph 26.5 mph N/A   Clear
11:15 AM 70.2 °F 18.0 °F 14% 30.09 in 10.0 mi West 13.8 mph 20.7 mph N/A   Clear
11:35 AM 70.9 °F 18.5 °F 14% 30.09 in 10.0 mi West 16.1 mph 24.2 mph N/A   Clear
11:55 AM 71.4 °F 17.6 °F 13% 30.08 in 10.0 mi West 16.1 mph 27.6 mph N/A   Clear
12:15 PM 72.5 °F 15.1 °F 11% 30.06 in 10.0 mi West 13.8 mph 21.9 mph N/A   Clear
12:35 PM 72.9 °F 13.5 °F 10% 30.05 in 10.0 mi West 21.9 mph 29.9 mph N/A   Clear
12:55 PM 73.2 °F 18.1 °F 12% 30.04 in 10.0 mi West 16.1 mph 28.8 mph N/A   Clear
1:15 PM 73.6 °F 17.6 °F 12% 30.03 in 10.0 mi West 23.0 mph 27.6 mph N/A   Clear
1:35 PM 72.9 °F 17.4 °F 12% 30.02 in 10.0 mi West 19.6 mph 26.5 mph N/A   Clear
1:55 PM 72.9 °F 16.3 °F 12% 30.01 in 10.0 mi West 17.3 mph 25.3 mph N/A   Clear
2:15 PM 73.2 °F 14.4 °F 11% 30.00 in 10.0 mi West 19.6 mph 27.6 mph N/A   Clear
2:35 PM 72.1 °F 18.1 °F 13% 29.99 in 10.0 mi West 24.2 mph 32.2 mph N/A   Clear
2:55 PM 72.3 °F 19.6 °F 14% 29.98 in 10.0 mi West 23.0 mph 31.1 mph N/A   Clear
3:15 PM 71.8 °F 19.4 °F 14% 29.97 in 10.0 mi West 26.5 mph 29.9 mph N/A   Clear
3:35 PM 71.4 °F 20.3 °F 14% 29.96 in 10.0 mi West 25.3 mph 32.2 mph N/A   Clear
3:55 PM 70.7 °F 20.3 °F 15% 29.97 in 10.0 mi West 26.5 mph 34.5 mph N/A   Clear
4:15 PM 70.5 °F 18.5 °F 14% 29.97 in 10.0 mi West 25.3 mph 28.8 mph N/A   Clear
4:35 PM 69.4 °F 18.5 °F 14% 29.98 in 10.0 mi West 21.9 mph 31.1 mph N/A   Clear
4:55 PM 68.5 °F 19.8 °F 16% 29.97 in 10.0 mi West 21.9 mph 28.8 mph N/A   Clear
5:15 PM 66.9 °F 19.9 °F 17% 29.98 in 10.0 mi West 20.7 mph 28.8 mph N/A   Clear
5:35 PM 65.8 °F 21.2 °F 18% 29.99 in 10.0 mi West 18.4 mph 24.2 mph N/A   Clear
5:55 PM 63.7 °F 21.6 °F 20% 29.98 in 10.0 mi West 10.4 mph 18.4 mph N/A   Clear
6:15 PM 62.6 °F 22.1 °F 21% 29.99 in 10.0 mi SW 3.5 mph - N/A   Clear
6:35 PM 61.0 °F 22.3 °F 23% 29.98 in 10.0 mi Calm Calm - N/A   Clear
6:55 PM 61.7 °F 22.1 °F 22% 29.99 in 10.0 mi Calm Calm - N/A   Clear
7:15 PM 60.6 °F 22.6 °F 23% 29.99 in 10.0 mi SSW 4.6 mph - N/A   Clear
7:35 PM 58.5 °F 23.7 °F 26% 29.99 in 10.0 mi Calm Calm - N/A   Clear
7:55 PM 56.3 °F 24.6 °F 29% 29.99 in 10.0 mi South 4.6 mph - N/A   Clear
8:15 PM 55.8 °F 24.8 °F 30% 29.98 in 10.0 mi SSE 3.5 mph - N/A   Clear
8:35 PM 56.7 °F 24.4 °F 29% 29.99 in 10.0 mi SE 6.9 mph - N/A   Clear
8:55 PM 57.2 °F 23.9 °F 28% 29.99 in 10.0 mi SSE 6.9 mph - N/A   Clear
9:15 PM 53.8 °F 24.4 °F 32% 29.99 in 10.0 mi South 8.1 mph - N/A   Clear
9:35 PM 54.1 °F 23.9 °F 31% 29.99 in 10.0 mi SW 8.1 mph - N/A   Clear
9:55 PM 55.0 °F 23.0 °F 29% 29.99 in 10.0 mi WSW 9.2 mph - N/A   Clear
10:15 PM 58.1 °F 21.7 °F 25% 29.97 in 10.0 mi WSW 15.0 mph - N/A   Clear
10:35 PM 59.5 °F 18.1 °F 20% 29.98 in 10.0 mi West 12.7 mph 20.7 mph N/A   Clear
10:55 PM 61.0 °F 15.8 °F 17% 29.97 in 10.0 mi West 17.3 mph 25.3 mph N/A   Clear
11:15 PM 61.0 °F 16.3 °F 18% 29.97 in 10.0 mi West 16.1 mph 24.2 mph N/A   Clear
11:35 PM 61.3 °F 16.3 °F 17% 29.97 in 10.0 mi West 17.3 mph 28.8 mph N/A   Clear
11:55 PM 61.2 °F 16.0 °F 17% 29.96 in 10.0 mi West 18.4 mph 25.3 mph N/A   Clear